Time,TemperatureF,DewpointF,PressureIn,WindDirection,WindDirectionDegrees,WindSpeedMPH,WindSpeedGustMPH,Humidity,HourlyPrecipIn,Conditions,Clouds,dailyrainin,SolarRadiationWatts/m^2,SoftwareType,DateUTC
2013-12-17 00:01:00,53.3,50.7,30.24,SE,126,0.0,0.0,91,0.00,CLR,SKC,0.00,0.0,WeatherDisplay:10.37,2013-12-17 06:01:00,
2013-12-17 00:06:00,53.2,50.6,30.24,SE,126,0.0,0.0,91,0.00,CLR,SKC,0.00,0.0,WeatherDisplay:10.37,2013-12-17 06:06:00,
2013-12-17 00:11:00,53.1,50.5,30.24,SE,126,0.0,0.0,91,0.00,CLR,SKC,0.00,0.0,WeatherDisplay:10.37,2013-12-17 06:11:00,
2013-12-17 00:16:00,53.1,50.5,30.24,SE,126,1.2,0.0,91,0.00,CLR,SKC,0.00,0.0,WeatherDisplay:10.37,2013-12-17 06:16:00,
2013-12-17 00:21:00,53.0,50.4,30.24,SE,126,0.0,0.0,91,0.00,CLR,SKC,0.00,0.0,WeatherDisplay:10.37,2013-12-17 06:21:00,
2013-12-17 00:26:00,53.0,50.4,30.24,SE,126,0.0,0.0,91,0.00,CLR,SKC,0.00,0.0,WeatherDisplay:10.37,2013-12-17 06:26:00,
2013-12-17 00:31:00,52.9,50.3,30.24,SE,126,0.0,0.0,91,0.00,CLR,SKC,0.00,0.0,WeatherDisplay:10.37,2013-12-17 06:31:00,
2013-12-17 00:36:00,52.8,50.2,30.24,SE,126,0.0,0.0,91,0.00,CLR,SKC,0.00,0.0,WeatherDisplay:10.37,2013-12-17 06:36:00,
2013-12-17 00:41:00,52.7,50.4,30.24,SE,126,0.0,0.0,92,0.00,CLR,SKC,0.00,0.0,WeatherDisplay:10.37,2013-12-17 06:41:00,
2013-12-17 00:46:00,52.6,50.0,30.24,SE,126,0.0,0.0,91,0.00,CLR,SKC,0.00,0.0,WeatherDisplay:10.37,2013-12-17 06:46:00,
2013-12-17 00:51:00,52.5,50.2,30.24,SE,126,0.0,0.0,92,0.00,CLR,SKC,0.00,0.0,WeatherDisplay:10.37,2013-12-17 06:51:00,
2013-12-17 00:56:00,52.5,50.2,30.23,SE,126,0.0,0.0,92,0.00,CLR,SKC,0.00,0.0,WeatherDisplay:10.37,2013-12-17 06:56:00,
2013-12-17 01:01:00,52.4,50.1,30.23,SE,126,0.0,0.0,92,0.00,CLR,SKC,0.00,0.0,WeatherDisplay:10.37,2013-12-17 07:01:00,
2013-12-17 01:06:00,52.4,50.1,30.23,SE,126,0.0,0.0,92,0.00,CLR,SKC,0.00,0.0,WeatherDisplay:10.37,2013-12-17 07:06:00,
2013-12-17 01:11:00,52.5,50.2,30.23,SE,126,0.0,0.0,92,0.00,CLR,SKC,0.00,0.0,WeatherDisplay:10.37,2013-12-17 07:11:00,
2013-12-17 01:16:00,52.5,50.2,30.23,SE,126,0.0,0.0,92,0.00,CLR,SKC,0.00,0.0,WeatherDisplay:10.37,2013-12-17 07:16:00,
2013-12-17 01:21:00,52.5,50.2,30.23,SE,126,0.0,0.0,92,0.00,CLR,SKC,0.00,0.0,WeatherDisplay:10.37,2013-12-17 07:21:00,
2013-12-17 01:26:00,52.4,50.1,30.23,SE,126,0.0,0.0,92,0.00,CLR,SKC,0.00,0.0,WeatherDisplay:10.37,2013-12-17 07:26:00,
2013-12-17 01:31:00,52.3,50.0,30.23,SE,126,0.0,0.0,92,0.00,CLR,SKC,0.00,0.0,WeatherDisplay:10.37,2013-12-17 07:31:00,
2013-12-17 01:36:00,52.2,49.9,30.23,SE,126,0.0,0.0,92,0.00,CLR,SKC,0.00,0.0,WeatherDisplay:10.37,2013-12-17 07:36:00,
2013-12-17 01:41:00,52.1,49.8,30.23,SE,126,0.0,0.0,92,0.00,CLR,SKC,0.00,0.0,WeatherDisplay:10.37,2013-12-17 07:41:00,
2013-12-17 01:46:00,52.0,49.7,30.23,SE,126,0.0,0.0,92,0.00,CLR,SKC,0.00,0.0,WeatherDisplay:10.37,2013-12-17 07:46:00,
2013-12-17 01:51:00,52.0,50.0,30.23,SE,126,0.0,0.0,93,0.00,CLR,SKC,0.00,0.0,WeatherDisplay:10.37,2013-12-17 07:51:00,
2013-12-17 01:56:00,52.0,50.0,30.23,SE,126,0.0,0.0,93,0.00,CLR,SKC,0.00,0.0,WeatherDisplay:10.37,2013-12-17 07:56:00,
2013-12-17 02:01:00,52.1,50.1,30.23,SE,126,0.0,0.0,93,0.00,CLR,SKC,0.00,0.0,WeatherDisplay:10.37,2013-12-17 08:01:00,
2013-12-17 02:06:00,52.2,50.2,30.23,SE,126,0.0,0.0,93,0.00,CLR,SKC,0.00,0.0,WeatherDisplay:10.37,2013-12-17 08:06:00,
2013-12-17 02:11:00,52.1,50.1,30.23,SE,126,0.0,0.0,93,0.00,CLR,SKC,0.00,0.0,WeatherDisplay:10.37,2013-12-17 08:11:00,
2013-12-17 02:16:00,52.1,50.1,30.23,SE,126,0.0,0.0,93,0.00,CLR,SKC,0.00,0.0,WeatherDisplay:10.37,2013-12-17 08:16:00,
2013-12-17 02:21:00,52.1,50.1,30.23,SE,126,0.0,0.0,93,0.00,CLR,SKC,0.00,0.0,WeatherDisplay:10.37,2013-12-17 08:21:00,
2013-12-17 02:26:00,51.9,49.9,30.23,SE,126,0.0,0.0,93,0.00,CLR,SKC,0.00,0.0,WeatherDisplay:10.37,2013-12-17 08:26:00,
2013-12-17 02:31:00,51.9,49.9,30.23,SE,126,0.0,0.0,93,0.00,CLR,SKC,0.00,0.0,WeatherDisplay:10.37,2013-12-17 08:31:00,
2013-12-17 02:36:00,51.9,49.9,30.23,SE,126,0.0,0.0,93,0.00,CLR,SKC,0.00,0.0,WeatherDisplay:10.37,2013-12-17 08:36:00,
2013-12-17 02:41:00,51.9,49.9,30.24,SE,126,1.2,1.2,93,0.00,CLR,SKC,0.00,0.0,WeatherDisplay:10.37,2013-12-17 08:41:00,
2013-12-17 02:46:00,51.9,49.9,30.24,SE,126,0.0,0.0,93,0.00,CLR,SKC,0.00,0.0,WeatherDisplay:10.37,2013-12-17 08:46:00,
2013-12-17 02:51:00,51.9,49.9,30.24,SE,126,0.0,0.0,93,0.00,CLR,SKC,0.00,0.0,WeatherDisplay:10.37,2013-12-17 08:51:00,
2013-12-17 02:56:00,51.8,49.8,30.23,SE,126,1.2,0.0,93,0.00,CLR,SKC,0.00,0.0,WeatherDisplay:10.37,2013-12-17 08:56:00,
2013-12-17 03:01:00,51.8,49.8,30.23,SE,126,0.0,0.0,93,0.00,CLR,SKC,0.00,0.0,WeatherDisplay:10.37,2013-12-17 09:01:00,
2013-12-17 03:06:00,51.8,49.8,30.23,SE,126,1.2,1.2,93,0.00,CLR,SKC,0.00,0.0,WeatherDisplay:10.37,2013-12-17 09:06:00,
2013-12-17 03:11:00,51.9,49.9,30.23,SE,126,1.2,1.2,93,0.00,CLR,SKC,0.00,0.0,WeatherDisplay:10.37,2013-12-17 09:11:00,
2013-12-17 03:16:00,51.9,49.9,30.23,SE,126,1.2,1.2,93,0.00,CLR,SKC,0.00,0.0,WeatherDisplay:10.37,2013-12-17 09:16:00,
2013-12-17 03:21:00,51.8,49.8,30.23,SE,126,0.0,0.0,93,0.00,CLR,SKC,0.00,0.0,WeatherDisplay:10.37,2013-12-17 09:21:00,
2013-12-17 03:26:00,51.7,49.7,30.23,West,260,2.3,2.3,93,0.00,CLR,SKC,0.00,0.0,WeatherDisplay:10.37,2013-12-17 09:26:00,
2013-12-17 03:31:00,51.6,49.6,30.23,West,260,3.5,3.5,93,0.00,CLR,SKC,0.00,0.0,WeatherDisplay:10.37,2013-12-17 09:31:00,
2013-12-17 03:36:00,51.5,49.5,30.23,West,259,2.3,2.3,93,0.00,CLR,SKC,0.00,0.0,WeatherDisplay:10.37,2013-12-17 09:36:00,
2013-12-17 03:41:00,51.3,49.3,30.22,West,260,1.2,1.2,93,0.00,CLR,SKC,0.00,0.0,WeatherDisplay:10.37,2013-12-17 09:41:00,
2013-12-17 03:46:00,51.1,49.1,30.22,West,260,2.3,2.3,93,0.00,CLR,SKC,0.00,0.0,WeatherDisplay:10.37,2013-12-17 09:46:00,
2013-12-17 03:51:00,51.0,49.0,30.22,West,259,2.3,2.3,93,0.00,CLR,SKC,0.00,0.0,WeatherDisplay:10.37,2013-12-17 09:51:00,
2013-12-17 03:56:00,50.8,48.8,30.22,West,260,1.2,1.2,93,0.00,CLR,SKC,0.00,0.0,WeatherDisplay:10.37,2013-12-17 09:56:00,
2013-12-17 04:01:00,50.7,48.7,30.22,West,259,1.2,1.2,93,0.00,CLR,SKC,0.00,0.0,WeatherDisplay:10.37,2013-12-17 10:01:00,
2013-12-17 04:06:00,50.6,48.7,30.22,West,259,2.3,2.3,93,0.00,CLR,SKC,0.00,0.0,WeatherDisplay:10.37,2013-12-17 10:06:00,
2013-12-17 04:11:00,50.5,48.6,30.22,West,259,1.2,1.2,93,0.00,CLR,SKC,0.00,0.0,WeatherDisplay:10.37,2013-12-17 10:11:00,
2013-12-17 04:16:00,50.4,48.5,30.22,West,260,2.3,2.3,93,0.00,CLR,SKC,0.00,0.0,WeatherDisplay:10.37,2013-12-17 10:16:00,
2013-12-17 04:21:00,50.4,48.5,30.22,West,259,1.2,0.0,93,0.00,CLR,SKC,0.00,0.0,WeatherDisplay:10.37,2013-12-17 10:21:00,
2013-12-17 04:26:00,50.3,48.4,30.22,West,259,1.2,1.2,93,0.00,CLR,SKC,0.00,0.0,WeatherDisplay:10.37,2013-12-17 10:26:00,
2013-12-17 04:31:00,50.3,48.4,30.22,West,259,1.2,1.2,93,0.00,CLR,SKC,0.00,0.0,WeatherDisplay:10.37,2013-12-17 10:31:00,
2013-12-17 04:36:00,50.3,48.6,30.22,West,259,3.5,3.5,94,0.00,CLR,SKC,0.00,0.0,WeatherDisplay:10.37,2013-12-17 10:36:00,
2013-12-17 04:41:00,50.4,48.7,30.22,West,259,3.5,3.5,94,0.00,CLR,SKC,0.00,0.0,WeatherDisplay:10.37,2013-12-17 10:41:00,
2013-12-17 04:46:00,50.4,48.7,30.22,West,259,2.3,2.3,94,0.00,CLR,SKC,0.00,0.0,WeatherDisplay:10.37,2013-12-17 10:46:00,
2013-12-17 04:51:00,50.4,48.7,30.22,West,259,0.0,0.1,94,0.00,CLR,SKC,0.00,0.0,WeatherDisplay:10.37,2013-12-17 10:51:00,
2013-12-17 04:56:00,50.4,48.7,30.22,West,259,2.3,2.3,94,0.00,CLR,SKC,0.00,0.0,WeatherDisplay:10.37,2013-12-17 10:56:00,
2013-12-17 05:01:00,50.2,48.3,30.22,West,259,1.2,1.2,93,0.00,CLR,SKC,0.00,0.0,WeatherDisplay:10.37,2013-12-17 11:01:00,
2013-12-17 05:07:00,50.0,48.1,30.22,West,259,3.5,3.5,93,0.00,CLR,SKC,0.00,0.0,WeatherDisplay:10.37,2013-12-17 11:07:00,
2013-12-17 05:12:00,49.8,47.9,30.22,West,259,1.2,1.2,93,0.00,CLR,SKC,0.00,0.0,WeatherDisplay:10.37,2013-12-17 11:12:00,
2013-12-17 05:17:00,49.7,47.8,30.22,West,259,2.3,2.3,93,0.00,CLR,SKC,0.00,0.0,WeatherDisplay:10.37,2013-12-17 11:17:00,
2013-12-17 05:22:00,49.6,47.9,30.22,West,259,1.2,1.2,94,0.00,CLR,SKC,0.00,0.0,WeatherDisplay:10.37,2013-12-17 11:22:00,
2013-12-17 05:27:00,49.5,47.6,30.22,West,259,2.3,2.3,93,0.00,CLR,SKC,0.00,0.0,WeatherDisplay:10.37,2013-12-17 11:27:00,
2013-12-17 05:32:00,49.5,47.6,30.22,West,259,0.0,0.0,93,0.00,CLR,SKC,0.00,0.0,WeatherDisplay:10.37,2013-12-17 11:32:00,
2013-12-17 05:37:00,49.3,47.4,30.22,West,259,0.0,0.0,93,0.00,CLR,SKC,0.00,0.0,WeatherDisplay:10.37,2013-12-17 11:37:00,
2013-12-17 05:42:00,49.3,47.4,30.22,West,259,0.0,0.0,93,0.00,CLR,SKC,0.00,0.0,WeatherDisplay:10.37,2013-12-17 11:42:00,
2013-12-17 05:47:00,49.3,47.6,30.22,West,259,2.3,2.3,94,0.00,CLR,SKC,0.00,0.0,WeatherDisplay:10.37,2013-12-17 11:47:00,
2013-12-17 05:52:00,49.2,47.5,30.22,West,259,3.5,3.5,94,0.00,CLR,SKC,0.00,0.0,WeatherDisplay:10.37,2013-12-17 11:52:00,
2013-12-17 05:57:00,49.2,47.5,30.22,West,259,2.3,2.3,94,0.00,CLR,SKC,0.00,0.0,WeatherDisplay:10.37,2013-12-17 11:57:00,
2013-12-17 06:02:00,49.2,47.5,30.22,West,259,2.3,2.3,94,0.00,CLR,SKC,0.00,0.0,WeatherDisplay:10.37,2013-12-17 12:02:00,
2013-12-17 06:07:00,49.1,47.4,30.22,West,259,2.3,0.0,94,0.00,CLR,SKC,0.00,0.0,WeatherDisplay:10.37,2013-12-17 12:07:00,
2013-12-17 06:12:00,49.1,47.4,30.22,West,259,0.0,0.0,94,0.00,CLR,SKC,0.00,0.0,WeatherDisplay:10.37,2013-12-17 12:12:00,
2013-12-17 06:17:00,49.1,47.4,30.22,West,259,0.0,0.0,94,0.00,CLR,SKC,0.00,0.0,WeatherDisplay:10.37,2013-12-17 12:17:00,
2013-12-17 06:22:00,49.2,47.5,30.22,West,259,0.0,0.0,94,0.00,CLR,SKC,0.00,0.0,WeatherDisplay:10.37,2013-12-17 12:22:00,
2013-12-17 06:27:00,49.2,47.5,30.23,West,259,0.0,0.0,94,0.00,CLR,SKC,0.00,0.0,WeatherDisplay:10.37,2013-12-17 12:27:00,
2013-12-17 06:32:00,49.1,47.4,30.23,West,259,0.0,0.0,94,0.00,CLR,SKC,0.00,0.0,WeatherDisplay:10.37,2013-12-17 12:32:00,
2013-12-17 06:37:00,49.1,47.4,30.23,West,259,0.0,0.0,94,0.00,CLR,SKC,0.00,0.0,WeatherDisplay:10.37,2013-12-17 12:37:00,
2013-12-17 06:42:00,49.1,47.4,30.23,West,259,0.0,0.0,94,0.00,CLR,SKC,0.00,0.0,WeatherDisplay:10.37,2013-12-17 12:42:00,
2013-12-17 06:47:00,49.1,47.4,30.23,West,259,0.0,0.0,94,0.00,CLR,SKC,0.00,0.0,WeatherDisplay:10.37,2013-12-17 12:47:00,
2013-12-17 06:52:00,49.0,47.3,30.23,West,259,0.0,0.0,94,0.00,CLR,SKC,0.00,0.0,WeatherDisplay:10.37,2013-12-17 12:52:00,
2013-12-17 06:57:00,48.8,46.9,30.24,West,259,0.0,0.0,93,0.00,CLR,SKC,0.00,0.0,WeatherDisplay:10.37,2013-12-17 12:57:00,
2013-12-17 07:02:00,48.6,46.7,30.24,West,259,0.0,0.0,93,0.00,CLR,SKC,0.00,0.0,WeatherDisplay:10.37,2013-12-17 13:02:00,
2013-12-17 07:07:00,48.6,47.0,30.24,West,259,0.0,0.0,94,0.00,CLR,SKC,0.00,0.0,WeatherDisplay:10.37,2013-12-17 13:07:00,
2013-12-17 07:12:00,48.5,46.9,30.24,West,259,0.0,0.0,94,0.00,CLR,SKC,0.00,5.0,WeatherDisplay:10.37,2013-12-17 13:12:00,
2013-12-17 07:17:00,48.5,46.9,30.24,West,265,0.0,0.0,94,0.00,CLR,SKC,0.00,7.0,WeatherDisplay:10.37,2013-12-17 13:17:00,
2013-12-17 07:22:00,48.5,46.9,30.24,West,266,0.0,0.0,94,0.00,CLR,SKC,0.00,9.0,WeatherDisplay:10.37,2013-12-17 13:22:00,
2013-12-17 07:27:00,48.5,46.9,30.25,WNW,288,0.0,0.0,94,0.00,CLR,SKC,0.00,12.0,WeatherDisplay:10.37,2013-12-17 13:27:00,
2013-12-17 07:32:00,48.6,47.0,30.25,WNW,288,0.0,0.0,94,0.00,CLR,SKC,0.00,32.0,WeatherDisplay:10.37,2013-12-17 13:32:00,
2013-12-17 07:37:00,48.8,47.2,30.25,NW,318,0.0,0.0,94,0.00,CLR,SKC,0.00,63.0,WeatherDisplay:10.37,2013-12-17 13:37:00,
2013-12-17 07:42:00,49.0,47.3,30.25,NW,321,3.5,3.5,94,0.00,CLR,SKC,0.00,86.0,WeatherDisplay:10.37,2013-12-17 13:42:00,
2013-12-17 07:47:00,49.5,48.1,30.25,NNW,333,0.0,0.0,95,0.00,CLR,SKC,0.00,107.0,WeatherDisplay:10.37,2013-12-17 13:47:00,
2013-12-17 07:52:00,49.8,48.1,30.25,NNW,333,0.0,0.0,94,0.00,CLR,SKC,0.00,121.0,WeatherDisplay:10.37,2013-12-17 13:52:00,
2013-12-17 07:57:00,50.1,48.7,30.26,NNW,333,0.0,0.0,95,0.00,CLR,SKC,0.00,135.0,WeatherDisplay:10.37,2013-12-17 13:57:00,
2013-12-17 08:02:00,50.5,48.8,30.26,NNW,333,0.0,0.0,94,0.00,CLR,SKC,0.00,148.0,WeatherDisplay:10.37,2013-12-17 14:02:00,
2013-12-17 08:07:00,50.9,49.2,30.26,NNW,339,3.5,3.5,94,0.00,CLR,SKC,0.00,162.0,WeatherDisplay:10.37,2013-12-17 14:07:00,
2013-12-17 08:12:00,51.3,49.9,30.27,North,360,1.2,1.2,95,0.00,CLR,SKC,0.00,174.0,WeatherDisplay:10.37,2013-12-17 14:12:00,
2013-12-17 08:17:00,51.6,49.9,30.27,NW,325,3.5,3.5,94,0.00,CLR,SKC,0.00,188.0,WeatherDisplay:10.37,2013-12-17 14:17:00,
2013-12-17 08:22:00,51.8,50.1,30.27,North,9,2.3,2.3,94,0.00,CLR,SKC,0.00,202.0,WeatherDisplay:10.37,2013-12-17 14:22:00,
2013-12-17 08:27:00,51.9,50.2,30.27,NNW,342,3.5,3.5,94,0.00,CLR,SKC,0.00,216.0,WeatherDisplay:10.37,2013-12-17 14:27:00,
2013-12-17 08:32:00,52.0,50.3,30.27,North,5,1.2,0.0,94,0.00,CLR,SKC,0.00,229.0,WeatherDisplay:10.37,2013-12-17 14:32:00,
2013-12-17 08:37:00,52.1,50.4,30.27,NW,325,3.5,3.5,94,0.00,CLR,SKC,0.00,244.0,WeatherDisplay:10.37,2013-12-17 14:37:00,
2013-12-17 08:42:00,52.2,50.5,30.28,NNW,348,2.3,2.3,94,0.00,CLR,SKC,0.00,262.0,WeatherDisplay:10.37,2013-12-17 14:42:00,
2013-12-17 08:47:00,52.4,50.7,30.28,NNW,348,3.5,3.5,94,0.00,CLR,SKC,0.00,278.0,WeatherDisplay:10.37,2013-12-17 14:47:00,
2013-12-17 08:52:00,52.6,50.9,30.28,NNE,23,3.5,3.5,94,0.00,CLR,SKC,0.00,295.0,WeatherDisplay:10.37,2013-12-17 14:52:00,
2013-12-17 08:57:00,52.7,50.7,30.28,NNW,340,4.0,4.0,93,0.00,CLR,SKC,0.00,311.0,WeatherDisplay:10.37,2013-12-17 14:57:00,
2013-12-17 09:02:00,52.9,50.9,30.28,NNW,345,3.5,3.5,93,0.00,CLR,SKC,0.00,325.0,WeatherDisplay:10.37,2013-12-17 15:02:00,
2013-12-17 09:07:00,53.1,51.1,30.28,NW,324,3.5,3.5,93,0.00,CLR,SKC,0.00,341.0,WeatherDisplay:10.37,2013-12-17 15:07:00,
2013-12-17 09:12:00,53.3,51.3,30.29,NNW,330,3.5,3.5,93,0.00,CLR,SKC,0.00,359.0,WeatherDisplay:10.37,2013-12-17 15:12:00,
2013-12-17 09:17:00,53.7,51.4,30.29,North,5,2.3,2.3,92,0.00,CLR,SKC,0.00,376.0,WeatherDisplay:10.37,2013-12-17 15:17:00,
2013-12-17 09:22:00,53.9,51.6,30.29,NNE,17,3.5,3.5,92,0.00,CLR,SKC,0.00,397.0,WeatherDisplay:10.37,2013-12-17 15:22:00,
2013-12-17 09:27:00,54.0,51.4,30.29,NW,326,3.5,3.5,91,0.00,CLR,SKC,0.00,413.0,WeatherDisplay:10.37,2013-12-17 15:27:00,
2013-12-17 09:32:00,54.2,51.6,30.29,NNW,345,3.5,3.5,91,0.00,CLR,SKC,0.00,424.0,WeatherDisplay:10.37,2013-12-17 15:32:00,
2013-12-17 09:37:00,54.5,51.9,30.29,NNE,17,2.3,2.3,91,0.00,CLR,SKC,0.00,436.0,WeatherDisplay:10.37,2013-12-17 15:37:00,
2013-12-17 09:42:00,54.9,52.0,30.29,North,355,2.3,2.3,90,0.00,CLR,SKC,0.00,448.0,WeatherDisplay:10.37,2013-12-17 15:42:00,
2013-12-17 09:47:00,55.3,52.4,30.29,North,5,1.2,1.2,90,0.00,CLR,SKC,0.00,462.0,WeatherDisplay:10.37,2013-12-17 15:47:00,
2013-12-17 09:52:00,55.7,52.5,30.29,North,5,3.5,3.5,89,0.00,CLR,SKC,0.00,473.0,WeatherDisplay:10.37,2013-12-17 15:52:00,
2013-12-17 09:57:00,56.2,52.7,30.30,NNW,347,3.5,3.5,88,0.00,CLR,SKC,0.00,485.0,WeatherDisplay:10.37,2013-12-17 15:57:00,
2013-12-17 10:02:00,56.6,52.8,30.30,NNE,24,2.3,2.3,87,0.00,CLR,SKC,0.00,496.0,WeatherDisplay:10.37,2013-12-17 16:02:00,
2013-12-17 10:07:00,56.8,52.7,30.30,NNE,21,3.5,3.5,86,0.00,CLR,SKC,0.00,508.0,WeatherDisplay:10.37,2013-12-17 16:07:00,
2013-12-17 10:12:00,56.8,52.3,30.30,NNE,23,3.5,3.5,85,0.00,CLR,SKC,0.00,520.0,WeatherDisplay:10.37,2013-12-17 16:12:00,
2013-12-17 10:17:00,56.8,52.0,30.30,NNE,12,3.5,3.5,84,0.00,CLR,SKC,0.00,529.0,WeatherDisplay:10.37,2013-12-17 16:17:00,
2013-12-17 10:22:00,57.1,52.6,30.30,NE,37,3.5,3.5,85,0.00,CLR,SKC,0.00,540.0,WeatherDisplay:10.37,2013-12-17 16:22:00,
2013-12-17 10:27:00,57.1,52.0,30.30,NNE,12,3.5,3.5,83,0.00,CLR,SKC,0.00,548.0,WeatherDisplay:10.37,2013-12-17 16:27:00,
2013-12-17 10:32:00,57.7,52.6,30.30,NE,42,4.0,4.0,83,0.00,CLR,SKC,0.00,557.0,WeatherDisplay:10.37,2013-12-17 16:32:00,
2013-12-17 10:37:00,58.1,52.6,30.30,NNE,26,4.6,4.6,82,0.00,CLR,SKC,0.00,568.0,WeatherDisplay:10.37,2013-12-17 16:37:00,
2013-12-17 10:42:00,58.5,53.0,30.30,NNE,24,3.5,3.5,82,0.00,CLR,SKC,0.00,575.0,WeatherDisplay:10.37,2013-12-17 16:42:00,
2013-12-17 10:47:00,58.9,53.1,30.30,NNE,30,3.5,3.5,81,0.00,CLR,SKC,0.00,584.0,WeatherDisplay:10.37,2013-12-17 16:47:00,
2013-12-17 10:52:00,59.3,53.5,30.30,NNE,33,2.3,2.3,81,0.00,CLR,SKC,0.00,591.0,WeatherDisplay:10.37,2013-12-17 16:52:00,
2013-12-17 10:57:00,59.7,53.5,30.30,NNE,28,3.5,3.5,80,0.00,CLR,SKC,0.00,598.0,WeatherDisplay:10.37,2013-12-17 16:57:00,
2013-12-17 11:02:00,60.0,53.8,30.30,NNE,32,2.3,2.3,80,0.00,CLR,SKC,0.00,605.0,WeatherDisplay:10.37,2013-12-17 17:02:00,
2013-12-17 11:07:00,60.4,54.2,30.30,NNE,24,1.2,1.2,80,0.00,CLR,SKC,0.00,610.0,WeatherDisplay:10.37,2013-12-17 17:07:00,
2013-12-17 11:12:00,60.9,54.3,30.30,East,92,3.5,3.5,79,0.01,RA,SKC,0.01,619.0,WeatherDisplay:10.37,2013-12-17 17:12:00,
2013-12-17 11:17:00,61.5,54.6,30.30,ENE,74,4.6,4.6,78,0.01,RA,SKC,0.01,626.0,WeatherDisplay:10.37,2013-12-17 17:17:00,
2013-12-17 11:22:00,61.6,54.7,30.30,East,82,3.5,3.5,78,0.01,CLR,SKC,0.01,631.0,WeatherDisplay:10.37,2013-12-17 17:22:00,
2013-12-17 11:27:00,61.9,55.0,30.29,ENE,67,4.6,4.6,78,0.01,CLR,SKC,0.01,636.0,WeatherDisplay:10.37,2013-12-17 17:27:00,
2013-12-17 11:32:00,61.9,54.6,30.29,ENE,57,5.0,5.0,77,0.01,CLR,SKC,0.01,640.0,WeatherDisplay:10.37,2013-12-17 17:32:00,
2013-12-17 11:37:00,61.8,54.5,30.29,ENE,76,4.0,4.0,77,0.01,CLR,SKC,0.01,643.0,WeatherDisplay:10.37,2013-12-17 17:37:00,
2013-12-17 11:42:00,61.7,54.4,30.28,NE,54,3.5,3.5,77,0.01,CLR,SKC,0.01,647.0,WeatherDisplay:10.37,2013-12-17 17:42:00,
2013-12-17 11:47:00,61.7,54.4,30.28,ENE,78,4.6,4.6,77,0.01,CLR,SKC,0.01,650.0,WeatherDisplay:10.37,2013-12-17 17:47:00,
2013-12-17 11:52:00,61.8,54.2,30.28,NE,52,5.0,5.0,76,0.01,CLR,SKC,0.01,654.0,WeatherDisplay:10.37,2013-12-17 17:52:00,
2013-12-17 11:57:00,61.8,54.2,30.28,ENE,70,6.0,6.0,76,0.01,CLR,SKC,0.01,654.0,WeatherDisplay:10.37,2013-12-17 17:57:00,
2013-12-17 12:02:00,61.8,54.2,30.28,ENE,63,4.6,4.6,76,0.01,CLR,SKC,0.01,657.0,WeatherDisplay:10.37,2013-12-17 18:02:00,
2013-12-17 12:07:00,61.8,54.2,30.28,ENE,71,6.0,6.0,76,0.01,CLR,SKC,0.01,659.0,WeatherDisplay:10.37,2013-12-17 18:07:00,
2013-12-17 12:12:00,61.7,54.1,30.27,NE,53,5.0,5.0,76,0.00,CLR,SKC,0.01,659.0,WeatherDisplay:10.37,2013-12-17 18:12:00,
2013-12-17 12:17:00,61.8,54.2,30.27,NE,54,5.8,5.8,76,0.00,CLR,SKC,0.01,661.0,WeatherDisplay:10.37,2013-12-17 18:17:00,
2013-12-17 12:22:00,62.0,53.6,30.27,East,86,6.0,6.0,74,0.00,CLR,SKC,0.01,661.0,WeatherDisplay:10.37,2013-12-17 18:22:00,
2013-12-17 12:27:00,62.3,53.9,30.26,East,96,5.0,5.0,74,0.00,CLR,SKC,0.01,659.0,WeatherDisplay:10.37,2013-12-17 18:27:00,
2013-12-17 12:32:00,62.4,54.0,30.26,ENE,74,5.8,5.8,74,0.00,CLR,SKC,0.01,659.0,WeatherDisplay:10.37,2013-12-17 18:32:00,
2013-12-17 12:37:00,62.2,53.8,30.26,ENE,69,5.8,5.8,74,0.00,CLR,SKC,0.01,657.0,WeatherDisplay:10.37,2013-12-17 18:37:00,
2013-12-17 12:42:00,62.3,53.5,30.25,ENE,71,5.8,5.8,73,0.00,CLR,SKC,0.01,657.0,WeatherDisplay:10.37,2013-12-17 18:42:00,
2013-12-17 12:47:00,62.2,53.4,30.25,ENE,74,7.0,7.0,73,0.00,CLR,SKC,0.01,654.0,WeatherDisplay:10.37,2013-12-17 18:47:00,
2013-12-17 12:52:00,62.1,53.7,30.25,ENE,60,5.0,5.0,74,0.00,CLR,SKC,0.01,650.0,WeatherDisplay:10.37,2013-12-17 18:52:00,
2013-12-17 12:57:00,62.0,54.0,30.24,ENE,76,6.0,6.0,75,0.00,CLR,SKC,0.01,649.0,WeatherDisplay:10.37,2013-12-17 18:57:00,
2013-12-17 13:02:00,62.0,54.0,30.24,ENE,65,6.9,6.9,75,0.00,CLR,SKC,0.01,645.0,WeatherDisplay:10.37,2013-12-17 19:02:00,
2013-12-17 13:07:00,61.9,53.9,30.24,ENE,60,6.0,6.0,75,0.00,CLR,SKC,0.01,640.0,WeatherDisplay:10.37,2013-12-17 19:07:00,
2013-12-17 13:12:00,61.7,54.1,30.24,ENE,62,7.0,7.0,76,0.00,CLR,SKC,0.01,636.0,WeatherDisplay:10.37,2013-12-17 19:12:00,
2013-12-17 13:17:00,61.5,54.2,30.24,East,86,6.9,6.9,77,0.00,CLR,SKC,0.01,633.0,WeatherDisplay:10.37,2013-12-17 19:17:00,
2013-12-17 13:22:00,61.5,54.2,30.24,East,84,6.9,6.9,77,0.00,CLR,SKC,0.01,628.0,WeatherDisplay:10.37,2013-12-17 19:22:00,
2013-12-17 13:27:00,61.8,54.2,30.23,ESE,105,4.6,4.6,76,0.00,CLR,SKC,0.01,621.0,WeatherDisplay:10.37,2013-12-17 19:27:00,
2013-12-17 13:32:00,62.0,53.6,30.23,ENE,77,5.8,5.8,74,0.00,CLR,SKC,0.01,617.0,WeatherDisplay:10.37,2013-12-17 19:32:00,
2013-12-17 13:37:00,61.6,53.2,30.23,ENE,72,8.1,8.1,74,0.00,CLR,SKC,0.01,608.0,WeatherDisplay:10.37,2013-12-17 19:37:00,
2013-12-17 13:42:00,61.3,53.3,30.22,ENE,78,7.0,7.0,75,0.00,CLR,SKC,0.01,601.0,WeatherDisplay:10.37,2013-12-17 19:42:00,
2013-12-17 13:47:00,61.1,53.5,30.22,ENE,78,9.2,9.2,76,0.00,CLR,SKC,0.01,592.0,WeatherDisplay:10.37,2013-12-17 19:47:00,
2013-12-17 13:52:00,60.9,53.3,30.22,ENE,72,9.2,9.2,76,0.00,CLR,SKC,0.01,584.0,WeatherDisplay:10.37,2013-12-17 19:52:00,
2013-12-17 13:57:00,60.9,53.6,30.22,ENE,74,9.2,9.2,77,0.00,CLR,SKC,0.01,577.0,WeatherDisplay:10.37,2013-12-17 19:57:00,
2013-12-17 14:02:00,60.9,54.0,30.22,East,81,8.1,8.1,78,0.00,CLR,SKC,0.01,568.0,WeatherDisplay:10.37,2013-12-17 20:02:00,
2013-12-17 14:07:00,60.9,54.0,30.22,East,85,6.9,6.9,78,0.00,CLR,SKC,0.01,559.0,WeatherDisplay:10.37,2013-12-17 20:07:00,
2013-12-17 14:12:00,61.1,53.8,30.21,ENE,74,9.2,9.2,77,0.00,CLR,SKC,0.01,550.0,WeatherDisplay:10.37,2013-12-17 20:12:00,
2013-12-17 14:17:00,61.1,53.8,30.21,ENE,65,6.9,6.9,77,0.00,CLR,SKC,0.01,541.0,WeatherDisplay:10.37,2013-12-17 20:17:00,
2013-12-17 14:22:00,61.1,54.2,30.21,ENE,66,5.8,5.8,78,0.00,CLR,SKC,0.01,531.0,WeatherDisplay:10.37,2013-12-17 20:22:00,
2013-12-17 14:27:00,61.3,54.0,30.21,ENE,78,6.9,6.9,77,0.00,CLR,SKC,0.01,520.0,WeatherDisplay:10.37,2013-12-17 20:27:00,
2013-12-17 14:32:00,61.4,53.8,30.21,East,85,7.0,7.0,76,0.00,CLR,SKC,0.01,510.0,WeatherDisplay:10.37,2013-12-17 20:32:00,
2013-12-17 14:37:00,61.5,53.9,30.21,East,95,7.0,7.0,76,0.00,CLR,SKC,0.01,499.0,WeatherDisplay:10.37,2013-12-17 20:37:00,
2013-12-17 14:42:00,61.6,54.0,30.21,ENE,71,5.8,5.8,76,0.00,CLR,SKC,0.01,489.0,WeatherDisplay:10.37,2013-12-17 20:42:00,
2013-12-17 14:47:00,61.5,53.9,30.21,East,97,9.2,9.2,76,0.00,CLR,SKC,0.01,476.0,WeatherDisplay:10.37,2013-12-17 20:47:00,
2013-12-17 14:52:00,61.4,53.8,30.21,East,89,10.4,10.4,76,0.00,CLR,SKC,0.01,466.0,WeatherDisplay:10.37,2013-12-17 20:52:00,
2013-12-17 14:57:00,61.1,53.5,30.21,East,101,6.9,6.9,76,0.00,CLR,SKC,0.01,454.0,WeatherDisplay:10.37,2013-12-17 20:57:00,
2013-12-17 15:02:00,61.2,53.2,30.21,ENE,61,5.8,5.8,75,0.00,CLR,SKC,0.01,446.0,WeatherDisplay:10.37,2013-12-17 21:02:00,
2013-12-17 15:07:00,61.5,53.1,30.21,East,81,10.4,10.4,74,0.00,CLR,SKC,0.01,432.0,WeatherDisplay:10.37,2013-12-17 21:07:00,
2013-12-17 15:12:00,61.4,53.4,30.21,East,84,9.2,9.2,75,0.00,CLR,SKC,0.01,304.0,WeatherDisplay:10.37,2013-12-17 21:12:00,
2013-12-17 15:17:00,61.3,54.0,30.21,East,82,10.4,10.4,77,0.00,CLR,SKC,0.01,417.0,WeatherDisplay:10.37,2013-12-17 21:17:00,
2013-12-17 15:22:00,61.3,54.7,30.21,ENE,61,6.9,6.9,79,0.00,CLR,SKC,0.01,373.0,WeatherDisplay:10.37,2013-12-17 21:22:00,
2013-12-17 15:27:00,61.5,55.3,30.21,East,96,8.1,8.1,80,0.00,CLR,SKC,0.01,366.0,WeatherDisplay:10.37,2013-12-17 21:27:00,
2013-12-17 15:32:00,61.4,55.2,30.21,East,92,11.5,11.5,80,0.00,CLR,SKC,0.01,279.0,WeatherDisplay:10.37,2013-12-17 21:32:00,
2013-12-17 15:37:00,61.3,55.4,30.21,ENE,78,8.1,8.1,81,0.00,CLR,SKC,0.01,243.0,WeatherDisplay:10.37,2013-12-17 21:37:00,
2013-12-17 15:42:00,61.3,55.8,30.21,East,91,9.0,9.0,82,0.00,CLR,SKC,0.01,348.0,WeatherDisplay:10.37,2013-12-17 21:42:00,
2013-12-17 15:47:00,61.4,56.2,30.21,ENE,77,9.0,9.0,83,0.00,CLR,SKC,0.01,98.0,WeatherDisplay:10.37,2013-12-17 21:47:00,
2013-12-17 15:52:00,61.6,56.4,30.21,ESE,103,11.5,11.5,83,0.00,CLR,SKC,0.01,107.0,WeatherDisplay:10.37,2013-12-17 21:52:00,
2013-12-17 15:57:00,61.7,56.5,30.21,ENE,70,9.0,9.0,83,0.00,CLR,SKC,0.01,118.0,WeatherDisplay:10.37,2013-12-17 21:57:00,
2013-12-17 16:02:00,61.5,56.3,30.21,ENE,61,6.9,6.9,83,0.00,CLR,SKC,0.01,316.0,WeatherDisplay:10.37,2013-12-17 22:02:00,
2013-12-17 16:07:00,61.5,56.3,30.21,ENE,77,10.4,10.4,83,0.00,CLR,SKC,0.01,316.0,WeatherDisplay:10.37,2013-12-17 22:07:00,
2013-12-17 16:12:00,61.5,56.3,30.21,ENE,70,10.4,10.4,83,0.00,CLR,SKC,0.01,292.0,WeatherDisplay:10.37,2013-12-17 22:12:00,
2013-12-17 16:16:00,61.4,56.2,30.21,ENE,73,8.1,8.1,83,0.00,CLR,SKC,0.01,253.0,WeatherDisplay:10.37,2013-12-17 22:16:00,
2013-12-17 16:21:00,61.4,56.5,30.21,ENE,67,9.2,9.2,84,0.00,CLR,SKC,0.01,139.0,WeatherDisplay:10.37,2013-12-17 22:21:00,
2013-12-17 16:26:00,61.5,56.3,30.21,ENE,78,8.1,8.1,83,0.00,CLR,SKC,0.01,121.0,WeatherDisplay:10.37,2013-12-17 22:26:00,
2013-12-17 16:31:00,61.6,56.4,30.21,ENE,68,11.5,11.5,83,0.00,CLR,SKC,0.01,95.0,WeatherDisplay:10.37,2013-12-17 22:31:00,
2013-12-17 16:36:00,61.6,56.4,30.21,East,96,7.0,7.0,83,0.00,CLR,SKC,0.01,77.0,WeatherDisplay:10.37,2013-12-17 22:36:00,
2013-12-17 16:41:00,61.5,56.0,30.21,ENE,76,10.4,10.4,82,0.00,CLR,SKC,0.01,65.0,WeatherDisplay:10.37,2013-12-17 22:41:00,
2013-12-17 16:46:00,61.3,56.1,30.21,East,98,10.4,10.4,83,0.00,CLR,SKC,0.01,58.0,WeatherDisplay:10.37,2013-12-17 22:46:00,
2013-12-17 16:51:00,61.2,56.0,30.21,East,79,9.2,9.2,83,0.00,CLR,SKC,0.01,49.0,WeatherDisplay:10.37,2013-12-17 22:51:00,
2013-12-17 16:56:00,61.2,56.0,30.21,East,90,10.4,10.4,83,0.00,CLR,SKC,0.01,39.0,WeatherDisplay:10.37,2013-12-17 22:56:00,
2013-12-17 17:01:00,61.2,56.0,30.21,ENE,60,9.2,9.2,83,0.00,CLR,SKC,0.01,30.0,WeatherDisplay:10.37,2013-12-17 23:01:00,
2013-12-17 17:06:00,61.2,56.0,30.21,East,100,7.0,7.0,83,0.00,CLR,SKC,0.01,25.0,WeatherDisplay:10.37,2013-12-17 23:06:00,
2013-12-17 17:11:00,61.1,55.9,30.21,East,87,6.9,6.9,83,0.00,CLR,SKC,0.01,19.0,WeatherDisplay:10.37,2013-12-17 23:11:00,
2013-12-17 17:16:00,60.9,56.0,30.21,ENE,76,5.8,5.8,84,0.00,CLR,SKC,0.01,18.0,WeatherDisplay:10.37,2013-12-17 23:16:00,
2013-12-17 17:21:00,60.7,55.8,30.21,ENE,68,6.0,6.0,84,0.00,CLR,SKC,0.01,16.0,WeatherDisplay:10.37,2013-12-17 23:21:00,
2013-12-17 17:26:00,60.5,55.6,30.21,East,82,10.4,10.4,84,0.00,CLR,SKC,0.01,12.0,WeatherDisplay:10.37,2013-12-17 23:26:00,
2013-12-17 17:31:00,60.4,55.5,30.21,ENE,69,6.9,6.9,84,0.00,CLR,SKC,0.01,9.0,WeatherDisplay:10.37,2013-12-17 23:31:00,
2013-12-17 17:36:00,60.3,55.4,30.21,East,82,5.8,5.8,84,0.00,CLR,SKC,0.01,5.0,WeatherDisplay:10.37,2013-12-17 23:36:00,
2013-12-17 17:41:00,60.2,55.3,30.21,East,94,6.9,6.9,84,0.00,CLR,SKC,0.01,0.0,WeatherDisplay:10.37,2013-12-17 23:41:00,
2013-12-17 17:46:00,60.2,55.3,30.21,East,85,7.0,7.0,84,0.00,CLR,SKC,0.01,0.0,WeatherDisplay:10.37,2013-12-17 23:46:00,
2013-12-17 17:51:00,60.2,55.3,30.21,NE,40,6.9,6.9,84,0.00,CLR,SKC,0.01,0.0,WeatherDisplay:10.37,2013-12-17 23:51:00,
2013-12-17 17:56:00,60.1,55.2,30.22,ESE,109,6.9,6.9,84,0.00,CLR,SKC,0.01,0.0,WeatherDisplay:10.37,2013-12-17 23:56:00,
2013-12-17 18:01:00,60.1,55.2,30.22,ENE,77,6.9,6.9,84,0.00,CLR,SKC,0.01,0.0,WeatherDisplay:10.37,2013-12-18 00:01:00,
2013-12-17 18:06:00,60.2,55.3,30.22,East,80,9.2,9.2,84,0.00,CLR,SKC,0.01,0.0,WeatherDisplay:10.37,2013-12-18 00:06:00,
2013-12-17 18:11:00,60.2,55.7,30.22,ENE,73,10.4,10.4,85,0.00,CLR,SKC,0.01,0.0,WeatherDisplay:10.37,2013-12-18 00:11:00,
2013-12-17 18:16:00,60.1,55.6,30.22,ESE,115,6.9,6.9,85,0.00,CLR,SKC,0.01,0.0,WeatherDisplay:10.37,2013-12-18 00:16:00,
2013-12-17 18:21:00,60.0,55.8,30.22,East,86,9.2,9.2,86,0.00,CLR,SKC,0.01,0.0,WeatherDisplay:10.37,2013-12-18 00:21:00,
2013-12-17 18:26:00,60.0,55.8,30.22,ENE,77,5.8,5.8,86,0.00,CLR,SKC,0.01,0.0,WeatherDisplay:10.37,2013-12-18 00:26:00,
2013-12-17 18:31:00,59.9,55.7,30.22,ENE,75,5.8,5.8,86,0.00,CLR,SKC,0.01,0.0,WeatherDisplay:10.37,2013-12-18 00:31:00,
2013-12-17 18:36:00,60.0,56.1,30.22,East,88,6.9,6.9,87,0.00,CLR,SKC,0.01,0.0,WeatherDisplay:10.37,2013-12-18 00:36:00,
2013-12-17 18:41:00,59.9,56.0,30.23,East,82,6.9,6.9,87,0.00,CLR,SKC,0.01,0.0,WeatherDisplay:10.37,2013-12-18 00:41:00,
2013-12-17 18:46:00,60.0,56.1,30.23,East,84,9.2,9.2,87,0.00,CLR,SKC,0.01,0.0,WeatherDisplay:10.37,2013-12-18 00:46:00,
2013-12-17 18:51:00,60.0,56.1,30.23,ESE,103,10.0,10.0,87,0.00,CLR,SKC,0.01,0.0,WeatherDisplay:10.37,2013-12-18 00:51:00,
2013-12-17 18:56:00,59.9,56.0,30.23,ENE,78,5.8,5.8,87,0.00,CLR,SKC,0.01,0.0,WeatherDisplay:10.37,2013-12-18 00:56:00,
2013-12-17 19:01:00,59.8,55.9,30.23,East,93,5.8,5.8,87,0.00,CLR,SKC,0.01,0.0,WeatherDisplay:10.37,2013-12-18 01:01:00,
2013-12-17 19:06:00,59.8,55.9,30.23,ENE,69,5.8,5.8,87,0.00,CLR,SKC,0.01,0.0,WeatherDisplay:10.37,2013-12-18 01:06:00,
2013-12-17 19:11:00,59.8,55.9,30.24,ENE,78,8.1,8.1,87,0.00,CLR,SKC,0.01,0.0,WeatherDisplay:10.37,2013-12-18 01:11:00,
2013-12-17 19:16:00,59.7,55.8,30.24,ENE,72,6.9,6.9,87,0.00,CLR,SKC,0.01,0.0,WeatherDisplay:10.37,2013-12-18 01:16:00,
2013-12-17 19:21:00,59.6,55.7,30.24,East,98,6.0,6.0,87,0.00,CLR,SKC,0.01,0.0,WeatherDisplay:10.37,2013-12-18 01:21:00,
2013-12-17 19:26:00,59.6,56.0,30.24,East,88,7.0,7.0,88,0.00,CLR,SKC,0.01,0.0,WeatherDisplay:10.37,2013-12-18 01:26:00,
2013-12-17 19:31:00,59.8,55.9,30.24,East,80,5.8,5.8,87,0.00,CLR,SKC,0.01,0.0,WeatherDisplay:10.37,2013-12-18 01:31:00,
2013-12-17 19:36:00,59.9,56.0,30.24,East,97,6.9,6.9,87,0.00,CLR,SKC,0.01,0.0,WeatherDisplay:10.37,2013-12-18 01:36:00,
2013-12-17 19:41:00,59.9,56.0,30.24,ESE,106,6.9,6.9,87,0.00,CLR,SKC,0.01,0.0,WeatherDisplay:10.37,2013-12-18 01:41:00,
2013-12-17 19:46:00,59.8,55.9,30.24,East,80,8.1,8.1,87,0.00,CLR,SKC,0.01,0.0,WeatherDisplay:10.37,2013-12-18 01:46:00,
2013-12-17 19:51:00,59.7,55.8,30.24,East,92,5.8,5.8,87,0.00,CLR,SKC,0.01,0.0,WeatherDisplay:10.37,2013-12-18 01:51:00,
2013-12-17 19:56:00,59.7,55.8,30.25,ENE,77,5.8,5.8,87,0.00,CLR,SKC,0.01,0.0,WeatherDisplay:10.37,2013-12-18 01:56:00,
2013-12-17 20:01:00,59.8,55.9,30.25,East,81,5.8,5.8,87,0.00,CLR,SKC,0.01,0.0,WeatherDisplay:10.37,2013-12-18 02:01:00,
2013-12-17 20:06:00,59.8,55.9,30.25,NE,55,5.8,5.8,87,0.00,CLR,SKC,0.01,0.0,WeatherDisplay:10.37,2013-12-18 02:06:00,
2013-12-17 20:11:00,59.8,55.9,30.25,ENE,70,5.8,5.8,87,0.00,CLR,SKC,0.01,0.0,WeatherDisplay:10.37,2013-12-18 02:11:00,
2013-12-17 20:16:00,59.8,55.9,30.25,East,88,6.0,6.0,87,0.00,CLR,SKC,0.01,0.0,WeatherDisplay:10.37,2013-12-18 02:16:00,
2013-12-17 20:21:00,59.8,55.9,30.25,East,84,8.1,8.1,87,0.00,CLR,SKC,0.01,0.0,WeatherDisplay:10.37,2013-12-18 02:21:00,
2013-12-17 20:26:00,59.7,55.8,30.25,ENE,76,9.2,9.2,87,0.00,CLR,SKC,0.01,0.0,WeatherDisplay:10.37,2013-12-18 02:26:00,
2013-12-17 20:31:00,59.7,55.8,30.25,ESE,105,5.8,5.8,87,0.00,CLR,SKC,0.01,0.0,WeatherDisplay:10.37,2013-12-18 02:31:00,
2013-12-17 20:36:00,59.8,55.9,30.25,East,88,5.8,5.8,87,0.00,CLR,SKC,0.01,0.0,WeatherDisplay:10.37,2013-12-18 02:36:00,
2013-12-17 20:41:00,60.0,56.1,30.26,East,82,6.9,6.9,87,0.00,CLR,SKC,0.01,0.0,WeatherDisplay:10.37,2013-12-18 02:41:00,
2013-12-17 20:46:00,60.0,56.1,30.26,ENE,63,5.8,5.8,87,0.00,CLR,SKC,0.01,0.0,WeatherDisplay:10.37,2013-12-18 02:46:00,
2013-12-17 20:51:00,60.1,55.9,30.26,East,92,6.9,6.9,86,0.00,CLR,SKC,0.01,0.0,WeatherDisplay:10.37,2013-12-18 02:51:00,
2013-12-17 20:56:00,60.2,56.0,30.27,ESE,119,6.9,6.9,86,0.00,CLR,SKC,0.01,0.0,WeatherDisplay:10.37,2013-12-18 02:56:00,
2013-12-17 21:01:00,60.2,56.0,30.27,East,79,6.0,6.0,86,0.00,CLR,SKC,0.01,0.0,WeatherDisplay:10.37,2013-12-18 03:01:00,
2013-12-17 21:06:00,60.1,55.9,30.27,East,83,4.6,4.6,86,0.00,CLR,SKC,0.01,0.0,WeatherDisplay:10.37,2013-12-18 03:06:00,
2013-12-17 21:11:00,59.9,55.7,30.27,East,81,4.6,4.6,86,0.00,CLR,SKC,0.01,0.0,WeatherDisplay:10.37,2013-12-18 03:11:00,
2013-12-17 21:16:00,59.7,55.5,30.27,East,80,4.6,4.6,86,0.00,CLR,SKC,0.01,0.0,WeatherDisplay:10.37,2013-12-18 03:16:00,
2013-12-17 21:21:00,59.6,55.4,30.27,East,92,6.9,6.9,86,0.00,CLR,SKC,0.01,0.0,WeatherDisplay:10.37,2013-12-18 03:21:00,
2013-12-17 21:26:00,59.6,55.4,30.27,East,98,6.0,6.0,86,0.00,CLR,SKC,0.01,0.0,WeatherDisplay:10.37,2013-12-18 03:26:00,
2013-12-17 21:31:00,59.8,55.6,30.27,East,87,6.9,6.9,86,0.00,CLR,SKC,0.01,0.0,WeatherDisplay:10.37,2013-12-18 03:31:00,
2013-12-17 21:36:00,59.9,55.7,30.27,East,87,5.8,5.8,86,0.00,CLR,SKC,0.01,0.0,WeatherDisplay:10.37,2013-12-18 03:36:00,
2013-12-17 21:41:00,60.0,55.8,30.27,ENE,71,5.8,5.8,86,0.00,CLR,SKC,0.01,0.0,WeatherDisplay:10.37,2013-12-18 03:41:00,
2013-12-17 21:46:00,60.1,55.6,30.27,ENE,76,5.8,5.8,85,0.00,CLR,SKC,0.01,0.0,WeatherDisplay:10.37,2013-12-18 03:46:00,
2013-12-17 21:51:00,60.1,55.6,30.27,East,82,6.9,6.9,85,0.00,CLR,SKC,0.01,0.0,WeatherDisplay:10.37,2013-12-18 03:51:00,
2013-12-17 21:56:00,60.3,55.8,30.27,ENE,78,5.8,5.8,85,0.00,CLR,SKC,0.01,0.0,WeatherDisplay:10.37,2013-12-18 03:56:00,
2013-12-17 22:01:00,60.3,55.8,30.27,East,87,6.0,6.0,85,0.00,CLR,SKC,0.01,0.0,WeatherDisplay:10.37,2013-12-18 04:01:00,
2013-12-17 22:06:00,60.3,55.4,30.27,ESE,104,6.9,6.9,84,0.00,CLR,SKC,0.01,0.0,WeatherDisplay:10.37,2013-12-18 04:06:00,
2013-12-17 22:11:00,60.3,55.4,30.27,East,101,5.8,5.8,84,0.00,CLR,SKC,0.01,0.0,WeatherDisplay:10.37,2013-12-18 04:11:00,
2013-12-17 22:16:00,60.4,55.5,30.27,East,88,6.0,6.0,84,0.00,CLR,SKC,0.01,0.0,WeatherDisplay:10.37,2013-12-18 04:16:00,
2013-12-17 22:21:00,60.4,55.5,30.27,ENE,73,6.9,6.9,84,0.00,CLR,SKC,0.01,0.0,WeatherDisplay:10.37,2013-12-18 04:21:00,
2013-12-17 22:26:00,60.4,55.2,30.27,East,92,5.8,5.8,83,0.00,CLR,SKC,0.01,0.0,WeatherDisplay:10.37,2013-12-18 04:26:00,
2013-12-17 22:31:00,60.4,55.2,30.27,East,90,5.8,5.8,83,0.00,CLR,SKC,0.01,0.0,WeatherDisplay:10.37,2013-12-18 04:31:00,
2013-12-17 22:36:00,60.4,55.2,30.27,East,89,3.5,3.5,83,0.00,CLR,SKC,0.01,0.0,WeatherDisplay:10.37,2013-12-18 04:36:00,
2013-12-17 22:41:00,60.2,55.0,30.27,East,83,5.8,5.8,83,0.00,CLR,SKC,0.01,0.0,WeatherDisplay:10.37,2013-12-18 04:41:00,
2013-12-17 22:46:00,60.3,55.1,30.27,East,93,5.0,5.0,83,0.00,CLR,SKC,0.01,0.0,WeatherDisplay:10.37,2013-12-18 04:46:00,
2013-12-17 22:51:00,60.3,55.1,30.27,ESE,112,5.8,5.8,83,0.00,CLR,SKC,0.01,0.0,WeatherDisplay:10.37,2013-12-18 04:51:00,
2013-12-17 22:56:00,60.3,55.1,30.27,East,90,5.8,5.8,83,0.00,CLR,SKC,0.01,0.0,WeatherDisplay:10.37,2013-12-18 04:56:00,
2013-12-17 23:01:00,60.2,55.0,30.27,East,90,5.8,5.8,83,0.00,CLR,SKC,0.01,0.0,WeatherDisplay:10.37,2013-12-18 05:01:00,
2013-12-17 23:02:00,60.2,55.0,30.27,East,82,6.0,6.0,83,0.00,CLR,SKC,0.01,0.0,WeatherDisplay:10.37,2013-12-18 05:02:00,
2013-12-17 23:07:00,60.2,55.0,30.27,ESE,104,6.9,6.9,83,0.00,CLR,SKC,0.01,0.0,WeatherDisplay:10.37,2013-12-18 05:07:00,
2013-12-17 23:12:00,60.1,54.9,30.27,ESE,103,5.8,5.8,83,0.00,CLR,SKC,0.01,0.0,WeatherDisplay:10.37,2013-12-18 05:12:00,
2013-12-17 23:17:00,60.0,55.2,30.27,ESE,104,5.8,5.8,84,0.00,CLR,SKC,0.01,0.0,WeatherDisplay:10.37,2013-12-18 05:17:00,
2013-12-17 23:22:00,60.0,55.2,30.27,East,82,8.1,8.1,84,0.00,CLR,SKC,0.01,0.0,WeatherDisplay:10.37,2013-12-18 05:22:00,
2013-12-17 23:27:00,59.9,55.1,30.27,East,99,5.8,5.8,84,0.00,CLR,SKC,0.01,0.0,WeatherDisplay:10.37,2013-12-18 05:27:00,
2013-12-17 23:32:00,59.8,55.0,30.27,ESE,106,5.8,5.8,84,0.00,CLR,SKC,0.01,0.0,WeatherDisplay:10.37,2013-12-18 05:32:00,
2013-12-17 23:37:00,59.8,55.0,30.27,East,99,4.0,4.0,84,0.00,CLR,SKC,0.01,0.0,WeatherDisplay:10.37,2013-12-18 05:37:00,
2013-12-17 23:42:00,59.6,54.8,30.26,East,100,4.6,4.6,84,0.00,CLR,SKC,0.01,0.0,WeatherDisplay:10.37,2013-12-18 05:42:00,
2013-12-17 23:47:00,59.4,54.6,30.26,ESE,105,3.5,3.5,84,0.00,CLR,SKC,0.01,0.0,WeatherDisplay:10.37,2013-12-18 05:47:00,
2013-12-17 23:52:00,59.3,54.8,30.26,ESE,115,3.5,3.5,85,0.00,CLR,SKC,0.01,0.0,WeatherDisplay:10.37,2013-12-18 05:52:00,
2013-12-17 23:57:00,59.2,54.7,30.25,ESE,109,3.5,3.5,85,0.00,CLR,SKC,0.01,0.0,WeatherDisplay:10.37,2013-12-18 05:57:00,